Location: Unspecified
(0.0000°N, 0.0000°E)
Time: 07:07:28
(UTC+00:00)

Envisat - Pass Details

Date: 11 January 2018
Orbit: 764 x 766 km, 98.2° (Epoch: 23 January)

Event Time Altitude Azimuth Distance (km) Brightness Sun altitude
Rises 19:01:41 0° 136° (SE) 3,230 6.0 -12.4°
Reaches altitude 10° 19:04:50 10° 116° (ESE) 2,301 5.1 -13.2°
Enters shadow 19:06:25 15° 98° (E) 1,999 4.6 -13.5°
